This is the latest recevied weather packets stored in our database for station/object K5KHP. If no packets are shown the sender has not sent any weather packets the latest 10 day(s).
| Time | Temp. | Humidity | Pressure | Rain* | Wind** | Luminosity | Snow |
|---|---|---|---|---|---|---|---|
| 1778113706 | 20° C | 66% | 1015.3 hPa | 0 mm | - | 217 W/m² | - |
| 1778113403 | 19.44° C | 66% | 1015.4 hPa | 0 mm | - | 229 W/m² | - |
| 1778113101 | 20° C | 65% | 1015.5 hPa | 0 mm | - | 248 W/m² | - |
| 1778112798 | 20° C | 65% | 1015.3 hPa | 0 mm | - | 260 W/m² | - |
| 1778112494 | 20.56° C | 63% | 1015.4 hPa | 0 mm | - | 268 W/m² | - |
| 1778112189 | 20° C | 64% | 1015.2 hPa | 0 mm | - | 280 W/m² | - |
| 1778111886 | 20° C | 65% | 1015.3 hPa | 0 mm | - | 299 W/m² | - |
| 1778111582 | 20° C | 65% | 1015.4 hPa | 0 mm | - | 330 W/m² | - |
| 1778111273 | 20° C | 64% | 1015.5 hPa | 0 mm | - | 315 W/m² | - |
| 1778110970 | 20.56° C | 63% | 1015.4 hPa | 0 mm | - | 329 W/m² | - |
| 1778110663 | 20.56° C | 64% | 1015.4 hPa | 0 mm | - | 348 W/m² | - |
| 1778110359 | 20.56° C | 65% | 1015.2 hPa | 0 mm | - | 343 W/m² | - |
| 1778110056 | 20.56° C | 64% | 1015.6 hPa | 0 mm | - | 354 W/m² | - |
| 1778109750 | 20.56° C | 64% | 1015.2 hPa | 0 mm | - | 349 W/m² | - |
| 1778109448 | 20.56° C | 65% | 1015.4 hPa | 0 mm | - | 360 W/m² | - |
| 1778109146 | 20.56° C | 66% | 1015.5 hPa | 0 mm | - | 380 W/m² | - |
| 1778108843 | 21.11° C | 64% | 1015.6 hPa | 0 mm | - | 389 W/m² | - |
| 1778108540 | 20.56° C | 64% | 1015.5 hPa | 0 mm | - | 387 W/m² | - |
| 1778108236 | 20.56° C | 64% | 1015.6 hPa | 0 mm | - | 392 W/m² | - |
| 1778107933 | 20.56° C | 64% | 1015.9 hPa | 0 mm | - | 393 W/m² | - |
| 1778107630 | 21.11° C | 65% | 1015.5 hPa | 0 mm | - | 401 W/m² | - |
| 1778107327 | 20.56° C | 65% | 1015.8 hPa | 0 mm | - | 416 W/m² | - |
| 1778107023 | 20.56° C | 67% | 1015.9 hPa | 0 mm | - | 458 W/m² | - |
| 1778106719 | 21.11° C | 64% | 1016 hPa | 0 mm | - | 491 W/m² | - |
| 1778106416 | 20.56° C | 64% | 1016 hPa | 0 mm | - | 514 W/m² | - |
* Rain latest hour (hover to see other rain measurements)
** Current wind speed in m/s (hover to see current wind gust speed)